When you browse on this site, cookies collect data to enhance your experience and personalize the content and advertising you see.
Visit our Privacy Policy to learn more. By continuing to use the site, you agree to this use of cookies and data.
  • In United Kingdom
  • List of Countries
  • For 7 days
  • Water Temperature
  • Satellite Maps
  • Weather Map
  • Weather Widgets
  • user-avatar
    Login

    Hourly Weather Abercanaid

    Today, 26 March, Tuesday

    Time Temperature Precipitation Wind Pressure Humidity
    00:00 +4°C° 0 mm 1 mps 751 mmHg 87%
    01:00 +3°C° 0 mm 1 mps 751 mmHg 87%
    02:00 +3°C° 0 mm 1 mps 750 mmHg 87%
    03:00 +3°C° 0 mm 1 mps 750 mmHg 87%
    04:00 +3°C° 0 mm 1 mps 750 mmHg 87%
    05:00 +3°C° 0 mm 1 mps 750 mmHg 87%
    06:00 +3°C° 0 mm 1 mps 750 mmHg 87%
    07:00 +4°C° 0 mm 1 mps 750 mmHg 82%
    08:00 +6°C° 0 mm 1 mps 751 mmHg 77%
    09:00 +8°C° 0 mm 1 mps 751 mmHg 71%
    10:00 +8°C° 0 mm 2 mps 751 mmHg 69%
    11:00 +9°C° 0 mm 2 mps 751 mmHg 66%
    12:00 +12°C° 0 mm 2 mps 751 mmHg 64%
    13:00 +11°C° 0 mm 3 mps 751 mmHg 65%
    14:00 +11°C° 0 mm 3 mps 750 mmHg 66%
    15:00 +11°C° 0 mm 4 mps 750 mmHg 68%
    16:00 +10°C° 0 mm 3 mps 750 mmHg 72%
    17:00 +9°C° 0 mm 3 mps 750 mmHg 77%
    18:00 +8°C° 0 mm 3 mps 750 mmHg 81%
    19:00 +5°C° 0 mm 3 mps 750 mmHg 84%
    20:00 +4°C° 0 mm 3 mps 750 mmHg 86%
    21:00 +4°C° 0 mm 2 mps 751 mmHg 88%
    22:00 +3°C° 0 mm 2 mps 751 mmHg 88%
    23:00 +3°C° 0 mm 2 mps 751 mmHg 88%

    Tomorrow, 27 March, Wednesday

    Time Temperature Precipitation Wind Pressure Humidity
    00:00 +3°C° 0 mm 2 mps 751 mmHg 88%
    01:00 +3°C° 0 mm 2 mps 751 mmHg 89%
    02:00 +4°C° 0 mm 1 mps 751 mmHg 89%
    03:00 +4°C° 0 mm 1 mps 750 mmHg 90%
    04:00 +3°C° 0 mm 1 mps 750 mmHg 90%
    05:00 +3°C° 0 mm 1 mps 751 mmHg 91%
    06:00 +3°C° 0 mm 1 mps 751 mmHg 91%
    07:00 +5°C° 0 mm 1 mps 751 mmHg 86%
    08:00 +7°C° 0 mm 1 mps 751 mmHg 81%
    09:00 +8°C° 0 mm 2 mps 752 mmHg 76%
    10:00 +9°C° 0 mm 2 mps 752 mmHg 72%
    11:00 +12°C° 0 mm 2 mps 752 mmHg 69%
    12:00 +13°C° 0 mm 2 mps 752 mmHg 65%
    13:00 +12°C° 0 mm 3 mps 752 mmHg 65%
    14:00 +13°C° 0 mm 3 mps 752 mmHg 65%
    15:00 +13°C° 0 mm 3 mps 752 mmHg 66%
    16:00 +12°C° 0 mm 3 mps 752 mmHg 71%
    17:00 +10°C° 0 mm 3 mps 752 mmHg 76%
    18:00 +9°C° 0 mm 3 mps 752 mmHg 81%
    19:00 +8°C° 0 mm 2 mps 752 mmHg 82%
    20:00 +6°C° 0 mm 2 mps 752 mmHg 83%
    21:00 +5°C° 0 mm 2 mps 752 mmHg 85%
    22:00 +4°C° 0 mm 2 mps 752 mmHg 83%
    23:00 +4°C° 0 mm 2 mps 752 mmHg 82%

    Day after tomorrow, 28 March, Thursday

    Time Temperature Precipitation Wind Pressure Humidity
    00:00 +4°C° 0 mm 2 mps 753 mmHg 81%
    01:00 +4°C° 0 mm 1 mps 753 mmHg 83%
    02:00 +4°C° 0 mm 1 mps 753 mmHg 85%
    03:00 +4°C° 0 mm 1 mps 752 mmHg 86%
    04:00 +4°C° 0 mm 1 mps 752 mmHg 87%
    05:00 +4°C° 0 mm 1 mps 752 mmHg 88%
    06:00 +2°C° 0 mm 0 mps 752 mmHg 89%
    07:00 +5°C° 0 mm 0 mps 753 mmHg 83%
    08:00 +7°C° 0 mm 0 mps 753 mmHg 78%
    09:00 +9°C° 0 mm 0 mps 753 mmHg 73%
    10:00 +10°C° 0 mm 0 mps 753 mmHg 70%
    11:00 +12°C° 0 mm 1 mps 753 mmHg 66%
    12:00 +14°C° 0 mm 1 mps 753 mmHg 63%
    13:00 +14°C° 0 mm 1 mps 753 mmHg 62%
    14:00 +14°C° 0 mm 1 mps 752 mmHg 61%
    15:00 +15°C° 0 mm 1 mps 752 mmHg 61%
    16:00 +13°C° 0 mm 1 mps 752 mmHg 67%
    17:00 +12°C° 0 mm 1 mps 751 mmHg 73%
    18:00 +10°C° 0 mm 2 mps 751 mmHg 79%
    19:00 +10°C° 0 mm 1 mps 751 mmHg 83%
    20:00 +9°C° 0 mm 1 mps 751 mmHg 86%
    21:00 +7°C° 0 mm 1 mps 751 mmHg 89%
    22:00 +6°C° 0 mm 0 mps 751 mmHg 89%
    23:00 +6°C° 0 mm 0 mps 751 mmHg 89%

    29 March, Friday

    Time Temperature Precipitation Wind Pressure Humidity
    00:00 +5°C° 0 mm 0 mps 751 mmHg 89%
    01:00 +5°C° 0 mm 0 mps 750 mmHg 89%
    02:00 +5°C° 0 mm 0 mps 750 mmHg 89%
    03:00 +6°C° 0 mm 1 mps 750 mmHg 89%
    04:00 +6°C° 0 mm 1 mps 749 mmHg 90%
    05:00 +5°C° 0 mm 1 mps 749 mmHg 91%
    06:00 +5°C° 0 mm 1 mps 749 mmHg 92%
    07:00 +7°C° 0 mm 1 mps 749 mmHg 89%
    08:00 +9°C° 0 mm 1 mps 749 mmHg 86%
    09:00 +10°C° 0 mm 2 mps 749 mmHg 82%
    10:00 +12°C° 0 mm 2 mps 749 mmHg 77%
    11:00 +13°C° 0 mm 2 mps 749 mmHg 71%
    12:00 +14°C° 0 mm 2 mps 749 mmHg 66%
    13:00 +14°C° 0 mm 2 mps 748 mmHg 64%
    14:00 +14°C° 0 mm 2 mps 748 mmHg 63%
    15:00 +15°C° 0 mm 2 mps 747 mmHg 62%
    16:00 +13°C° 0 mm 2 mps 747 mmHg 67%
    17:00 +12°C° 0 mm 2 mps 747 mmHg 72%
    18:00 +11°C° 0 mm 1 mps 746 mmHg 77%
    19:00 +10°C° 0 mm 1 mps 746 mmHg 80%
    20:00 +9°C° 0 mm 1 mps 746 mmHg 83%
    21:00 +7°C° 0 mm 0 mps 746 mmHg 87%
    22:00 +6°C° 0 mm 0 mps 746 mmHg 87%
    23:00 +6°C° 0 mm 0 mps 746 mmHg 88%

    30 March, Saturday

    Time Temperature Precipitation Wind Pressure Humidity
    00:00 +6°C° 0 mm 0 mps 746 mmHg 89%
    01:00 +6°C° 0 mm 0 mps 746 mmHg 89%
    02:00 +5°C° 0 mm 0 mps 745 mmHg 89%
    03:00 +6°C° 0 mm 1 mps 745 mmHg 89%
    04:00 +6°C° 0 mm 1 mps 745 mmHg 89%
    05:00 +5°C° 0 mm 0 mps 745 mmHg 89%
    06:00 +4°C° 0 mm 0 mps 745 mmHg 89%
    07:00 +7°C° 0 mm 1 mps 745 mmHg 84%
    08:00 +9°C° 0 mm 1 mps 745 mmHg 78%
    09:00 +11°C° 0 mm 1 mps 745 mmHg 72%
    10:00 +12°C° 0 mm 1 mps 745 mmHg 67%
    11:00 +13°C° 0 mm 1 mps 745 mmHg 61%
    12:00 +14°C° 0 mm 1 mps 745 mmHg 56%
    13:00 +14°C° 0 mm 2 mps 745 mmHg 56%
    14:00 +14°C° 0 mm 2 mps 745 mmHg 57%
    15:00 +14°C° 0 mm 3 mps 745 mmHg 57%
    16:00 +12°C° 0 mm 3 mps 745 mmHg 65%
    17:00 +11°C° 0 mm 4 mps 745 mmHg 72%
    18:00 +9°C° 0 mm 5 mps 745 mmHg 79%
    19:00 +7°C° 0 mm 5 mps 745 mmHg 77%
    20:00 +5°C° 0 mm 6 mps 746 mmHg 76%
    21:00 +3°C° 0 mm 6 mps 746 mmHg 74%
    22:00 +4°C° 0 mm 6 mps 746 mmHg 78%
    23:00 +4°C° 0 mm 6 mps 746 mmHg 82%

    31 March, Sunday

    Time Temperature Precipitation Wind Pressure Humidity
    00:00 +4°C° 0 mm 6 mps 747 mmHg 86%
    01:00 +3°C° 0 mm 6 mps 747 mmHg 80%
    02:00 +3°C° 0 mm 7 mps 747 mmHg 73%
    03:00 +2°C° 0 mm 7 mps 747 mmHg 67%
    04:00 +2°C° 0 mm 6 mps 747 mmHg 69%
    05:00 +1°C° 0 mm 6 mps 748 mmHg 72%
    06:00 +1°C° 0 mm 6 mps 748 mmHg 74%
    07:00 +2°C° 0 mm 7 mps 748 mmHg 73%
    08:00 +2°C° 0 mm 7 mps 749 mmHg 71%
    09:00 +2°C° 0 mm 8 mps 749 mmHg 70%
    10:00 +4°C° 0 mm 7 mps 749 mmHg 67%
    11:00 +5°C° 0 mm 7 mps 750 mmHg 64%
    12:00 +6°C° 0 mm 7 mps 750 mmHg 60%
    13:00 +6°C° 0 mm 7 mps 749 mmHg 60%
    14:00 +7°C° 0 mm 6 mps 749 mmHg 60%
    15:00 +7°C° 0 mm 6 mps 749 mmHg 60%
    16:00 +5°C° 0 mm 6 mps 749 mmHg 64%
    17:00 +5°C° 0 mm 5 mps 749 mmHg 67%
    18:00 +3°C° 0 mm 5 mps 749 mmHg 71%
    19:00 +3°C° 0 mm 4 mps 749 mmHg 73%
    20:00 +1°C° 0 mm 4 mps 749 mmHg 76%
    21:00 0°C° 0 mm 4 mps 749 mmHg 79%
    22:00 -1°C° 0 mm 4 mps 749 mmHg 81%
    23:00 -2°C° 0 mm 4 mps 749 mmHg 83%
    Show more